Tracking 19847 objects as of 16-Sep-2019
HD Live streaming from Space Station
objects crossing your sky now

COSMOS 1275 DEB

Track COSMOS 1275 DEB now!
10-day predictions


NORAD ID: 42184
Int'l Code: 1981-053SY
Perigee: 967.3 km
Apogee: 1,109.2 km
Inclination: 83.0 °
Period: 105.8 minutes
Semi major axis: 7409 km
RCS: Unknown
Launch date: June 4, 1981
Source: Commonwealth of Independent States (former USSR) (CIS)
Launch site: PLESETSK MISSILE AND SPACE COMPLEX (PKMTR)

Note: This is SATELLITE DEBRIS
aabbcc
Your satellite tracking list
Your tracking list is empty




NASA's NSSDC Master Catalog

Two Line Element Set (TLE):
1 42184U 81053SY  19257.49417378 +.00000100 +00000-0 +10925-3 0  9994
2 42184 083.0192 274.9760 0095786 004.7310 148.3873 13.61264317275720
Source of the keplerian elements: AFSPC